Mosby, MO

10:07 PM CDT on July 21, 2017 (GMT -0500)
Clay County Regional

Weather History for KGPH - March, 2013

Change the Weather History Date:

Saturday, March 9, 2013

  Actual Average (KMKC) Record (KMKC)
Temperature  
Mean Temperature 48 °F -  
Max Temperature 55 °F 48 °F 66 °F (2007)
Min Temperature 41 °F 29 °F 12 °F (2003)
Degree Days  
Heating Degree Days 17    
Moisture  
Dew Point 43 °F    
Average Humidity 89    
Maximum Humidity 100    
Minimum Humidity 71    
Precipitation  
Precipitation 0.00 in - - ()
Sea Level Pressure  
Sea Level Pressure 29.79 in    
Wind  
Wind Speed 7 mph (ESE)    
Max Wind Speed 10 mph    
Max Gust Speed -    
Visibility 7 miles    
Events Rain , Thunderstorm    
Averages and records for this station are not official NWS values.
T = Trace of Precipitation, MM = Missing Value Source: NWS Daily Summary

Daily Weather History Graph

Daily Weather History Graph

Search for Another Location

Airport or City:

Trip Planner

Search our weather history database for the weather conditions in past years. The results will help you decide how hot, cold, wet, or windy it might be!

Date:

Astronomy

Mar. 09, 2013 Rise Set
Actual Time 6:37 AM CST 6:18 PM CST
Civil Twilight 6:10 AM CST 6:45 PM CST
Nautical Twilight 5:39 AM CST 7:16 PM CST
Astronomical Twilight 5:08 AM CST 7:47 PM CST
Moon 5:01 AM CST (3/9) 4:21 PM CST (3/9)
Length of Visible Light 12h 34m
Length of Day
11h 40m
Waning Crescent, 5% of the Moon is Illuminated
Mar 9
Waning Crescent
Mar 11
New
Mar 19
First Quarter
Mar 27
Full
Apr 2
Last Quarter

Hourly Weather History & Observations

Time (CST) Temp. Windchill Dew Point Humidity Pressure Visibility Wind Dir Wind Speed Gust Speed Precip Events Conditions
12:15 AM 42.8 °F 37.5 °F 37.4 °F 81% 30.00 in 10.0 mi ESE 9.2 mph - N/A   Overcast
12:35 AM 42.8 °F 37.5 °F 37.4 °F 81% 30.01 in 10.0 mi ESE 9.2 mph - N/A   Overcast
1:15 AM 42.8 °F 38.6 °F 37.4 °F 81% 30.00 in 10.0 mi ESE 6.9 mph - N/A   Overcast
1:35 AM 42.8 °F 38.0 °F 37.4 °F 81% 29.99 in 10.0 mi ESE 8.1 mph - N/A   Overcast
2:15 AM 42.8 °F 38.0 °F 37.4 °F 81% 29.99 in 10.0 mi ESE 8.1 mph - N/A   Overcast
2:35 AM 41.0 °F 35.8 °F 37.4 °F 87% 29.97 in 10.0 mi ESE 8.1 mph - N/A   Overcast
3:15 AM 41.0 °F 38.0 °F 37.4 °F 87% 29.95 in 7.0 mi ESE 4.6 mph - N/A   Light Drizzle
3:35 AM 41.0 °F 37.1 °F 37.4 °F 87% 29.94 in 7.0 mi ESE 5.8 mph - N/A   Overcast
4:15 AM 41.0 °F 36.4 °F 39.2 °F 93% 29.92 in 7.0 mi ESE 6.9 mph - N/A   Unknown
4:35 AM 41.0 °F 35.2 °F 39.2 °F 93% 29.92 in 7.0 mi ESE 9.2 mph - N/A   Overcast
4:55 AM 41.0 °F 35.2 °F 39.2 °F 93% 29.91 in 7.0 mi ESE 9.2 mph - N/A   Overcast
5:15 AM 41.0 °F 35.8 °F 39.2 °F 93% 29.90 in 5.0 mi ESE 8.1 mph - N/A   Mostly Cloudy
5:35 AM 41.0 °F 35.2 °F 39.2 °F 93% 29.90 in 5.0 mi ESE 9.2 mph - N/A   Mostly Cloudy
5:55 AM 41.0 °F 35.2 °F 39.2 °F 93% 29.89 in 7.0 mi ESE 9.2 mph - N/A   Scattered Clouds
6:15 AM 41.0 °F 35.2 °F 39.2 °F 93% 29.90 in 7.0 mi ESE 9.2 mph - N/A   Mostly Cloudy
6:35 AM 41.0 °F 35.8 °F 39.2 °F 93% 29.89 in 7.0 mi ESE 8.1 mph - N/A   Overcast
6:55 AM 41.0 °F 35.2 °F 39.2 °F 93% 29.88 in 7.0 mi ESE 9.2 mph - N/A   Mostly Cloudy
7:15 AM 41.0 °F 35.2 °F 39.2 °F 93% 29.88 in 7.0 mi ESE 9.2 mph - N/A   Mostly Cloudy
7:35 AM 41.0 °F 35.8 °F 39.2 °F 93% 29.88 in 7.0 mi ESE 8.1 mph - N/A   Overcast
7:55 AM 42.8 °F 37.0 °F 39.2 °F 87% 29.87 in 7.0 mi ESE 10.4 mph - N/A   Overcast
8:15 AM 42.8 °F 37.5 °F 39.2 °F 87% 29.87 in 7.0 mi SE 9.2 mph - N/A   Overcast
8:35 AM 42.8 °F 38.0 °F 39.2 °F 87% 29.85 in 10.0 mi ESE 8.1 mph - N/A   Mostly Cloudy
8:55 AM 42.8 °F 37.5 °F 41.0 °F 93% 29.85 in 10.0 mi SE 9.2 mph - N/A   Mostly Cloudy
9:15 AM 44.6 °F 40.2 °F 41.0 °F 87% 29.84 in 10.0 mi ESE 8.1 mph - N/A   Mostly Cloudy
9:35 AM 44.6 °F 40.7 °F 41.0 °F 87% 29.84 in 10.0 mi ESE 6.9 mph - N/A   Overcast
9:55 AM 44.6 °F 41.4 °F 41.0 °F 87% 29.83 in 10.0 mi ESE 5.8 mph - N/A   Overcast
10:15 AM 44.6 °F 43.1 °F 41.0 °F 87% 29.85 in 10.0 mi SSE 3.5 mph - N/A Rain Light Rain
10:35 AM 44.6 °F 41.4 °F 41.0 °F 87% 29.82 in 10.0 mi ESE 5.8 mph - N/A Rain Light Rain
10:55 AM 46.4 °F 42.9 °F 41.0 °F 81% 29.80 in 10.0 mi ESE 6.9 mph - N/A   Mostly Cloudy
11:15 AM 48.2 °F - 41.0 °F 76% 29.80 in 10.0 mi SE 5.8 mph - N/A   Mostly Cloudy
11:35 AM 48.2 °F - 41.0 °F 76% 29.80 in 10.0 mi ESE 5.8 mph - N/A   Overcast
11:55 AM 50.0 °F - 41.0 °F 71% 29.78 in 10.0 mi ESE 8.1 mph - N/A   Overcast
12:15 PM 50.0 °F - 42.8 °F 76% 29.77 in 10.0 mi ESE 8.1 mph - N/A   Mostly Cloudy
12:35 PM 51.8 °F - 42.8 °F 71% 29.76 in 10.0 mi ESE 5.8 mph - N/A   Mostly Cloudy
12:55 PM 53.6 °F - 44.6 °F 72% 29.74 in 10.0 mi ESE 6.9 mph - N/A Rain Light Rain
1:15 PM 53.6 °F - 46.4 °F 77% 29.73 in 10.0 mi ESE 5.8 mph - N/A   Mostly Cloudy
1:35 PM 55.4 °F - 46.4 °F 72% 29.73 in 10.0 mi SSE 4.6 mph - N/A Rain Light Rain
1:55 PM 55.4 °F - 46.4 °F 72% 29.73 in 10.0 mi South 5.8 mph - N/A Thunderstorm Unknown
2:15 PM 55.4 °F - 46.4 °F 72% 29.72 in 10.0 mi SSW 4.6 mph - N/A   Overcast
2:35 PM 55.4 °F - 46.4 °F 72% 29.72 in 7.0 mi Calm Calm - N/A Rain , Thunderstorm Rain
2:55 PM 53.6 °F - 48.2 °F 82% 29.72 in 7.0 mi Calm Calm - N/A Thunderstorm Unknown
3:15 PM 51.8 °F - 48.2 °F 88% 29.72 in 5.0 mi Calm Calm - N/A Rain , Thunderstorm Rain
3:35 PM 51.8 °F - 50.0 °F 94% 29.71 in 7.0 mi East 4.6 mph - N/A Thunderstorm Unknown
3:55 PM 51.8 °F - 50.0 °F 94% 29.70 in 7.0 mi ESE 6.9 mph - N/A Thunderstorm Thunderstorm
4:15 PM 51.8 °F - 50.0 °F 94% 29.69 in 5.0 mi ESE 5.8 mph - N/A Rain , Thunderstorm Light Thunderstorms and Rain
4:35 PM 51.8 °F - 50.0 °F 94% 29.69 in 5.0 mi ESE 4.6 mph - N/A Rain Rain
4:55 PM 50.0 °F - 46.4 °F 87% 29.68 in 7.0 mi East 4.6 mph - N/A Thunderstorm Overcast
5:15 PM 50.0 °F - 46.4 °F 87% 29.68 in 7.0 mi Calm Calm - N/A Rain , Thunderstorm Light Thunderstorms and Rain
5:35 PM 50.0 °F - 46.4 °F 87% 29.69 in 5.0 mi NNW 5.8 mph - N/A Rain , Thunderstorm Light Thunderstorms and Rain
5:55 PM 48.2 °F - 46.4 °F 93% 29.70 in 2.5 mi North 5.8 mph - N/A Rain , Thunderstorm Rain
6:15 PM 48.2 °F - 46.4 °F 93% 29.70 in 1.8 mi ENE 5.8 mph - N/A Rain , Thunderstorm Rain
6:35 PM 46.4 °F 45.2 °F 46.4 °F 100% 29.69 in 2.5 mi East 3.5 mph - N/A Rain Light Rain
6:55 PM 46.4 °F 44.3 °F 46.4 °F 100% 29.68 in 2.0 mi East 4.6 mph - N/A Rain Light Rain
7:15 PM 46.4 °F - 46.4 °F 100% 29.68 in 2.5 mi Calm Calm - N/A Rain , Thunderstorm Thunderstorms and Rain
7:35 PM 46.4 °F 43.5 °F 46.4 °F 100% 29.66 in 1.5 mi ENE 5.8 mph - N/A Rain , Thunderstorm Rain
7:55 PM 46.4 °F - 46.4 °F 100% 29.69 in 2.5 mi Calm Calm - N/A   Light Drizzle
8:15 PM 46.4 °F - 46.4 °F 100% 29.69 in 2.0 mi Calm Calm - N/A Rain Rain
8:35 PM 46.4 °F 41.5 °F 46.4 °F 100% 29.65 in 1.8 mi East 10.4 mph - N/A Rain Rain
9:15 PM 48.2 °F - 46.4 °F 93% 29.66 in 3.0 mi SE 6.9 mph - N/A   Overcast
9:35 PM 48.2 °F - 46.4 °F 93% 29.66 in 3.0 mi ESE 5.8 mph - N/A Rain Rain
9:55 PM 48.2 °F - 48.2 °F 100% 29.66 in 2.5 mi SE 5.8 mph - N/A   Light Drizzle
10:15 PM 48.2 °F - 46.4 °F 93% 29.64 in 1.5 mi ESE 8.1 mph - N/A Rain Light Rain
10:35 PM 48.2 °F - 48.2 °F 100% 29.62 in 2.0 mi ESE 9.2 mph - N/A   Overcast
10:55 PM 50.0 °F - 48.2 °F 94% 29.62 in 1.5 mi ESE 9.2 mph - N/A   Overcast
11:15 PM 50.0 °F - 50.0 °F 100% 29.62 in 3.0 mi ESE 8.1 mph - N/A   Overcast
11:35 PM 51.8 °F - 51.8 °F 100% 29.64 in 5.0 mi SSE 5.8 mph - N/A   Overcast
11:55 PM 51.8 °F - 51.8 °F 100% 29.64 in 5.0 mi SE 6.9 mph - N/A   Overcast